Miscellaneous Local Product
Issued by NWS Hastings, NE

Home | Current Version | Previous Version | Text Only | Print | Product List | Glossary On
Versions: 1 2 3 4 5 6 7 8 9 10 11 12 13 14 15 16 17 18 19 20 21 22 23 24 25 26 27 28 29 30 31 32 33 34 35 36 37 38 39 40 41 42 43 44 45 46 47 48 49 50
000
AXUS43 KGID 211602
MISGRI

GID CWA HOURLY WEATHER ROUNDUP
NATIONAL WEATHER SERVICE HASTINGS NE
1100 AM CDT THU SEP 21 2017

NOTE: "FAIR" INDICATES FEW OR NO CLOUDS BELOW 12,000 FEET WITH NO
SIGNIFICANT WEATHER AND/OR OBSTRUCTIONS TO VISIBILITY.

...SOUTH CENTRAL NEBRASKA...

CITY           SKY/WX    TMP DP  RH WIND       PRES   REMARKS
GRAND ISLAND   SUNNY     74  67  78 S12       29.80F
HASTINGS       SUNNY     76  64  66 S10       29.81F
KEARNEY        SUNNY     75  61  61 SE13      29.79F
ORD            SUNNY     70  58  65 SE10      29.78F
YORK           MOSUNNY   81  70  69 S14       29.81F
AURORA         SUNNY     76  69  78 S10G16    29.80F
LEXINGTON      SUNNY     76  58  54 SE10      29.78S
HOLDREGE       SUNNY     76  54  45 S14       29.78F
HEBRON         SUNNY     83  70  66 S12G17    29.82S

...NEBRASKA PANHANDLE...

CITY           SKY/WX    TMP DP  RH WIND       PRES   REMARKS
CHADRON        SUNNY     71  41  33 S10       29.67F
ALLIANCE       SUNNY     63  45  51 S10       29.74F
SCOTTSBLUFF    SUNNY     62  43  49 E10       29.74S
SIDNEY         SUNNY     69  40  34 S6        29.78R

...WESTERN AND NORTH CENTRAL NEBRASKA...

CITY           SKY/WX    TMP DP  RH WIND       PRES   REMARKS
VALENTINE      SUNNY     74  57  55 S18       29.73F
AINSWORTH      SUNNY     70  59  68 SE10      29.76F
ONEILL         SUNNY     71  61  71 SE12      29.79F
BROKEN BOW     SUNNY     74  59  59 SE15G21   29.77F
IMPERIAL       SUNNY     71  42  35 S8        29.75F
NORTH PLATTE   SUNNY     69  57  65 SE9       29.75F
MCCOOK         SUNNY     74  50  42 S14       29.76F

...EASTERN NEBRASKA...

CITY           SKY/WX    TMP DP  RH WIND       PRES   REMARKS
NORFOLK        CLOUDY    72  66  81 SE15      29.80F
SO SIOUX CITY  MOSUNNY   76  69  79 SE15G23   29.82F
TEKAMAH        SUNNY     79  69  71 SE16      29.83F
COLUMBUS       PTSUNNY   78  69  73 S12       29.81F
ALBION         CLOUDY    68  64  87 S9        29.81F
OMAHA EPPLEY   MOSUNNY   82  70  66 SE17      29.84F
OFFUTT AFB     MOSUNNY   82  71  69 SE17      29.84F
MILLARD        PTSUNNY   82  73  74 SE12      29.84F
LINCOLN        SUNNY     84  71  65 S14       29.82F
NEBRASKA CITY  CLOUDY    80  75  85 S12G21    29.86F
BEATRICE       PTSUNNY   84  72  68 S15       29.84S
FALLS CITY     MOSUNNY   84  72  67 S17       29.86S

...NORTHERN KANSAS...

CITY           SKY/WX    TMP DP  RH WIND       PRES   REMARKS
GOODLAND       SUNNY     80  40  23 S12       29.77S
HILL CITY      SUNNY     84  51  31 S14G22    29.78F
NORTON         SUNNY     81  43  26 SE13G18   29.76
PHILLIPSBURG   SUNNY     79  55  44 SE9       29.78F
SMITH CENTER   SUNNY     79  63  57 SE13      29.80F
HAYS           SUNNY     81  66  60 S9        29.80F
RUSSELL        SUNNY     83  68  60 S17       29.79F
CONCORDIA      SUNNY     81  73  76 S14G25    29.82S
SALINA         SUNNY     87  70  56 S15G25    29.82S HX  92
TOPEKA         SUNNY     85  74  69 S14       29.88F HX  92



USA.gov is the U.S. government's official web portal to all federal, state and local government web resources and services.